#timestamp,LO_Frequency,Hit,StdDev 
1456286415.5,286047003.3,P
1456286435.3,286047005.9,P
1456286455.2,286047003.2,N
1456286475.0,286047003.5,N
1456286475.9,286047003.5,N
1456286495.7,286047002.6,N
1456286515.6,286047004.4,Y
1456286535.4,286046999.8,P
1456286555.2,286046999.6,N
1456286575.1,286046995.3,N
1456286576.0,286046995.3,N
1456286595.8,286046995.8,N
1456286615.6,286046993.9,N
1456286635.5,286046996.0,N
1456286655.3,286046991.8,N
1456286675.1,286046994.9,N
1456286695.9,286046995.1,N
1456286715.7,286046996.3,N
1456286735.5,286046995.8,N
1456286755.4,286046993.4,N
1456286775.2,286046993.9,N
1456286795.0,286046996.3,N
1456286795.9,286046996.3,N
1456286815.8,286046994.5,N
1456286835.6,286046992.1,Y
1456286855.4,286046999.2,P
1456286875.3,286047001.2,N
1456286895.1,286047000.2,N
1456286896.0,286047000.2,N
1456286915.8,286047001.2,N
1456286935.6,286046999.3,N
1456286955.1,286046996.9,N
1456286975.8,286046997.2,N
1456286995.7,286046997.7,N
1456287015.5,286046997.7,N
1456287035.3,286046996.4,N
1456287055.2,286046993.2,Y
1456287075.9,286046994.6,P
1456287095.7,286046989.1,P
1456287115.6,286046991.0,N
1456287135.4,286046992.7,N
1456287155.2,286046988.8,Y
1456287175.1,286046996.7,P
1456287176.0,286046996.7,N
1456287195.8,286046999.6,N
1456287215.6,286046998.9,N
1456287235.5,286047002.8,N
1456287255.3,286047001.6,N
1456287275.1,286047002.4,N
1456287295.9,286047002.7,N
1456287315.7,286046999.0,N
1456287335.5,286046999.2,N
1456287355.4,286047000.5,N
1456287375.2,286047004.3,N
1456287395.0,286047003.7,N
1456287395.9,286047003.7,N
1456287415.7,286047004.2,N
1456287435.6,286047002.3,N
1456287455.4,286047002.7,N
1456287475.2,286047001.8,N
1456287495.1,286047000.1,N
1456287496.0,286047000.1,N
1456287515.8,286047004.2,N
1456287535.6,286047003.4,N
1456287555.5,286047007.7,N
1456287575.3,286047009.5,Y
1456287595.1,286047008.7,P
1456287615.9,286047009.0,N
1456287635.7,286047010.3,N
1456287655.5,286047015.2,Y
1456287675.4,286047010.6,P
1456287695.2,286047012.3,P
1456287715.0,286047009.9,P
1456287715.9,286047009.9,Y
1456287735.8,286046997.7,P
1456287755.6,286046995.1,N
1456287775.4,286046999.2,N
1456287795.3,286046999.0,N
1456287815.1,286046999.3,N
1456287835.8,286047000.8,N
1456287855.7,286047001.9,N
1456287875.5,286047002.2,N
1456287895.3,286047003.1,N
1456287915.2,286047005.8,N
1456287935.9,286047006.6,N
1456287955.7,286047009.1,N
1456287975.5,286047007.1,N
1456287995.4,286047006.3,N
1456288015.2,286047006.5,N
1456288035.0,286047006.4,N
1456288035.9,286047006.4,N
1456288055.8,286047006.3,N
1456288075.6,286047004.5,N
1456288095.4,286047009.2,N
1456288115.3,286047004.8,N
1456288135.1,286047005.5,N
1456288136.0,286047005.5,N
1456288155.8,286047005.4,N
1456288175.7,286047005.0,N
1456288195.5,286047007.4,N
1456288215.3,286047003.3,N
1456288235.2,286046999.7,N
1456288255.9,286047002.4,N
1456288275.7,286047004.4,N
1456288295.5,286047001.9,N
1456288315.4,286047001.9,N
1456288335.2,286046999.7,N
1456288355.0,286047003.2,N
1456288355.9,286047003.2,N
1456288375.8,286047001.6,N
1456288395.6,286047000.3,N
1456288415.4,286046999.5,N
1456288435.3,286047000.1,N
1456288455.1,286047003.8,N
1456288475.8,286047006.0,N
1456288495.7,286047001.7,N
1456288515.5,286047000.3,N
1456288535.3,286046998.6,N
1456288555.2,286046998.5,N
1456288575.9,286046995.1,N
1456288595.7,286046996.1,N
1456288615.6,286046996.0,N
1456288635.4,286046996.3,N
1456288655.2,286046995.5,N
1456288675.0,286047000.4,N
1456288675.9,286047000.4,N
1456288695.8,286047000.9,N
1456288715.6,286046998.1,N
1456288735.4,286046998.7,N
1456288755.3,286046997.9,N
1456288775.1,286046995.9,N
1456288795.8,286046993.5,N
1456288815.7,286046991.7,N
1456288835.5,286046994.3,N
1456288855.3,286046994.5,N
1456288875.2,286046996.4,N
1456288895.9,286046996.4,N
1456288915.7,286046993.7,N
1456288935.6,286046994.4,N
1456288955.4,286046990.5,N
1456288975.2,286046993.0,N
1456288995.0,286046990.1,N
1456288996.0,286046990.1,N
1456289015.8,286046994.2,N
1456289035.6,286046991.9,N
1456289055.5,286046990.2,Y
1456289075.3,286046994.5,P
1456289095.1,286046993.9,P
1456289115.8,286046993.3,P
1456289135.7,286046999.5,N
1456289155.5,286046995.7,N
1456289175.3,286046995.4,N
1456289195.2,286046994.6,N
1456289215.9,286046993.9,Y
1456289235.7,286046997.8,P
1456289255.6,286046996.6,N
1456289275.4,286047000.6,N
1456289295.2,286047002.8,N
1456289315.1,286046997.0,N
1456289316.0,286046997.0,N
1456289335.8,286047002.4,N
1456289355.6,286047002.1,N
1456289375.5,286047002.0,N
1456289395.3,286047003.4,N
1456289415.1,286047005.6,N
1456289435.9,286047007.4,N
1456289455.7,286047005.1,N
1456289475.5,286047005.9,N
1456289495.3,286047006.2,N
1456289515.2,286047011.5,Y
1456289535.0,286047010.2,P
1456289535.9,286047010.2,N
1456289555.7,286047009.5,N
1456289575.6,286047009.7,N
1456289595.4,286047011.5,Y
1456289615.3,286047002.5,P
1456289635.1,286047001.8,N
1456289636.0,286047001.8,N
1456289655.8,286047000.3,N
1456289675.6,286047003.8,N
1456289695.5,286047007.2,N
1456289715.3,286047004.1,N
1456289735.1,286047004.4,N
1456289755.9,286046999.9,N
1456289775.7,286047001.2,N
1456289795.5,286047000.8,N
1456289815.4,286046999.7,N
1456289835.2,286047003.7,N
1456289855.0,286047006.2,N
1456289855.9,286047006.2,N
1456289875.8,286047007.0,N
1456289895.6,286047006.3,N
1456289915.4,286047006.8,N
1456289935.3,286047006.1,N
1456289955.1,286047008.9,Y
1456289956.0,286047008.9,P
1456289975.8,286047010.0,P
1456289995.7,286047008.2,P
